[[{"header":{"parameterUnit":"m.s-1","parameterCategory":1,"la1":30.2992,"la2":30.254,"lo1":-89.0895,"lo2":-89.0443,"dy":0.0025,"dx":0.0025,"nx":19,"ny":19,"refTime":"2026-05-19T03:00:00:Z","depth":0,"parameterNumber":2,"parameterNumberName":"U-component_of_WINDS"},"data":[0,0,0,-1.1087,-1.1088,-1.1095,-1.1095,-1.1113,-1.1113,0,0,0,0,0,0,0,0,0,0,0,-1.1089,-1.109,-1.1087,-1.1088,-1.1095,-1.1095,-1.1113,-1.1113,0,0,0,0,0,0,0,0,0,0,0,-1.1089,-1.109,-1.109,-1.1088,-1.1095,-1.1095,-1.1113,-1.1104,0,0,0,0,0,0,0,0,0,0,-1.1096,-1.1101,-1.109,-1.109,-1.1088,-1.1095,-1.1095,-1.1104,-1.1105,-1.1113,0,-1.112,0,-1.1117,-1.1115,-1.1115,0,0,0,-1.1085,-1.1101,-1.1099,-1.109,-1.1088,-1.1095,-1.1091,-1.1104,-1.1105,-1.1114,-1.112,-1.1121,-1.1117,-1.1115,-1.1115,-1.117,-1.117,0,0,-1.1084,-1.1093,-1.1098,-1.11,-1.1099,-1.1091,-1.1091,-1.1105,-1.1112,-1.112,-1.1121,-1.1118,-1.1115,-1.1115,-1.1169,-1.117,0,0,0,-1.1085,-1.1093,-1.1091,-1.1099,-1.11,-1.1091,-1.1092,-1.1112,-1.111,-1.1121,-1.1118,-1.1115,-1.1115,-1.1169,-1.117,-1.1198,0,0,0,-1.1085,-1.1093,-1.1091,-1.1096,-1.11,-1.1106,-1.1098,-1.1109,-1.1111,-1.1118,-1.1115,-1.1116,-1.1169,-1.1169,-1.1196,-1.121,0,0,0,-1.1087,-1.1094,-1.1096,-1.1097,-1.11,-1.1105,-1.1105,-1.1109,-1.1109,-1.1115,-1.1116,-1.1168,-1.1169,-1.1195,-1.1207,-1.1227,0,0,0,-1.1093,-1.1121,-1.1097,-1.1127,-1.11,-1.1123,-1.1104,-1.1121,-1.113,-1.1115,-1.1169,-1.117,-1.1194,-1.1205,-1.1225,-1.1245,-1.1254,0,0,-1.1133,-1.1126,-1.1143,-1.1122,-1.1151,-1.1121,-1.1155,-1.1154,-1.1147,-1.1163,-1.1164,-1.1197,-1.1207,-1.1226,-1.1302,-1.1309,0,0,0,-1.1159,-1.1171,-1.1177,-1.1186,-1.1186,-1.1188,-1.1182,-1.1182,-1.1195,-1.1157,-1.1209,-1.1215,-1.1226,-1.1235,-1.1241,-1.125,-1.1174,-1.1174,-1.1174,-1.1228,-1.1217,-1.1245,-1.1236,-1.1245,-1.1238,-1.1245,-1.1244,-1.123,-1.1243,-1.1247,-1.1294,-1.1305,-1.131,-1.1319,-1.1257,-1.1257,-1.1257,-1.1257,-1.1286,-1.1301,-1.1284,-1.1304,-1.1293,-1.1311,-1.1306,-1.1297,-1.1311,-1.129,-1.1299,-1.1276,-1.1318,-1.1326,-1.1259,-1.1259,-1.1259,-1.1259,-1.1258,-1.1329,-1.1335,-1.1335,-1.1347,-1.1358,-1.1348,-1.1363,-1.1353,-1.1343,-1.1353,-1.1356,-1.1356,-1.1354,-1.1355,-1.1355,-1.1356,-1.1356,-1.1356,-1.1356,-1.1374,-1.1373,-1.1387,-1.1391,-1.1396,-1.1401,-1.1396,-1.1401,-1.1403,-1.1395,-1.1394,-1.138,-1.1324,-1.131,-1.1358,-1.1358,-1.1358,-1.1357,-1.1357,-1.1436,-1.142,-1.1442,-1.1447,-1.1451,-1.1463,-1.145,-1.1461,-1.1463,-1.1472,-1.1456,-1.1416,-1.1408,-1.1403,-1.1391,-1.1458,-1.1458,-1.1458,-1.1458,-1.1472,-1.1467,-1.1487,-1.1496,-1.1504,-1.1495,-1.152,-1.1518,-1.1512,-1.1513,-1.1503,-1.1486,-1.1482,-1.1476,-1.147,-1.1459,-1.1541,-1.1541,-1.1541,-1.1509,-1.1505,-1.1528,-1.1523,-1.1526,-1.1529,-1.1554,-1.1565,-1.1556,-1.1544,-1.1514,-1.1511,-1.1485,-1.1477,-1.1463,-1.1453,-1.1432,0,0]},{"header":{"parameterUnit":"m.s-1","parameterCategory":1,"la1":30.2992,"la2":30.254,"lo1":-89.0895,"lo2":-89.0443,"dy":0.0025,"dx":0.0025,"nx":19,"ny":19,"refTime":"2026-05-19T03:00:00:Z","depth":0,"parameterNumber":3,"parameterNumberName":"V-component_of_WINDS"},"data":[0,0,0,2.057,2.057,2.0584,2.0584,2.0579,2.0579,0,0,0,0,0,0,0,0,0,0,0,2.0553,2.0553,2.057,2.057,2.0584,2.0584,2.0579,2.0579,0,0,0,0,0,0,0,0,0,0,0,2.0554,2.0553,2.0553,2.057,2.0584,2.0584,2.0579,2.0576,0,0,0,0,0,0,0,0,0,0,2.0566,2.054,2.0553,2.0553,2.057,2.0584,2.0584,2.0576,2.0576,2.0564,0,2.0551,0,2.0565,2.0577,2.0577,0,0,0,2.0578,2.054,2.0555,2.0553,2.057,2.0584,2.058,2.0577,2.0576,2.0563,2.0551,2.0552,2.0565,2.0577,2.0577,2.0484,2.0483,0,0,2.0577,2.0549,2.0555,2.0554,2.0553,2.0579,2.058,2.0577,2.0561,2.0551,2.0552,2.0565,2.0577,2.0577,2.0484,2.0483,0,0,0,2.0569,2.0548,2.0564,2.0554,2.0559,2.0579,2.058,2.0561,2.0569,2.0552,2.0565,2.0577,2.0577,2.0485,2.0484,2.0418,0,0,0,2.0569,2.0544,2.0563,2.0546,2.0558,2.056,2.0564,2.0569,2.0569,2.0565,2.0577,2.0576,2.0486,2.0485,2.0422,2.0391,0,0,0,2.0556,2.0542,2.0541,2.0544,2.055,2.0561,2.0569,2.0569,2.0577,2.0577,2.0576,2.0487,2.0485,2.0425,2.0397,2.0359,0,0,0,2.0534,2.0479,2.0539,2.0483,2.0549,2.0521,2.0569,2.0549,2.0541,2.0577,2.0486,2.0484,2.0427,2.04,2.0363,2.0323,2.0304,0,0,2.0449,2.0468,2.0438,2.0492,2.0446,2.0521,2.0465,2.0483,2.0507,2.0489,2.0488,2.0421,2.0397,2.036,2.0206,2.0191,0,0,0,2.0401,2.0379,2.0373,2.0367,2.0381,2.0391,2.0422,2.0429,2.0416,2.0493,2.0398,2.0385,2.0364,2.0346,2.0333,2.0317,2.0475,2.0475,2.0475,2.024,2.0277,2.0229,2.0268,2.0261,2.0294,2.0291,2.0306,2.0343,2.032,2.0314,2.0217,2.0195,2.0186,2.0168,2.0296,2.0296,2.0296,2.0296,2.0119,2.0094,2.0147,2.012,2.0159,2.0135,2.0165,2.0193,2.0175,2.0223,2.0207,2.0256,2.0168,2.0155,2.0291,2.0292,2.0293,2.0293,2.0293,2.0017,2.0012,2.0024,2.002,2.0012,2.0053,2.0035,2.007,2.0103,2.0087,2.0085,2.0086,2.0092,2.0084,2.0083,2.0083,2.0083,2.0083,2.0082,1.9907,1.9923,1.9905,1.9918,1.992,1.9926,1.9961,1.9962,1.9973,2.0,2.0,2.0039,2.0153,2.0181,2.0077,2.0078,2.0079,2.0079,2.008,1.977,1.9808,1.978,1.9782,1.9801,1.9792,1.9838,1.9839,1.9845,1.9835,1.9879,1.9958,1.9978,1.9989,2.0012,1.9871,1.9871,1.9871,1.9871,1.9684,1.9699,1.9681,1.9682,1.9686,1.9726,1.9693,1.9719,1.9752,1.9758,1.9783,1.9818,1.9827,1.9842,1.9856,1.9878,1.9706,1.9706,1.9706,1.9602,1.962,1.9586,1.9622,1.964,1.9654,1.9624,1.9621,1.9666,1.97,1.9763,1.977,1.9826,1.9842,1.9876,1.9897,1.9938,0,0]}]]